Theta_e
307 307 307 307 307 306 306 306 307 306 306 306 306 307 307 307 307 307 307 307 306 306 305 305 305 306 307 307 307 308 310 311 311 312 310 311 309 307 304 305 299 297 290
306 305 305 305 305 305 305 305 305 305 306 306 306 306 306 306 305 305 306 305 305 305 304 303 303 302 303 303 303 303 305 307 307 307 309 309 309 307 303 301 294 288 288
305 305 305 304 304 304 304 304 303 303 303 303 303 303 303 304 304 305 305 304 304 304 303 302 301 300 299 299 298 299 300 303 305 305 306 306 306 304 299 291 287 287 287
303 303 303 303 303 303 302 302 302 302 302 302 301 301 301 302 302 302 303 303 303 302 301 300 299 298 297 296 295 295 295 296 298 299 301 301 302 300 294 289 285 284 285
302 302 302 301 301 301 301 300 300 300 300 300 299 300 300 300 300 300 301 301 301 300 298 297 296 295 294 294 293 293 293 292 292 292 294 296 297 297 295 289 285 284 283
301 301 301 300 300 299 299 299 298 298 298 298 298 298 298 298 298 299 299 299 300 299 299 296 294 293 292 292 292 292 292 291 290 289 289 291 293 294 292 288 285 283 282
300 299 299 299 298 298 298 298 298 298 297 297 297 297 297 297 297 297 298 298 298 298 297 296 295 292 291 290 290 290 291 291 289 288 287 288 289 290 290 288 286 284 284
298 298 298 298 297 297 297 297 297 297 297 297 297 296 296 296 296 296 296 296 297 297 296 294 293 291 290 290 289 289 289 289 288 288 286 286 287 287 287 287 285 283 283
297 297 297 297 296 296 296 295 295 294 294 294 294 294 294 294 294 294 294 294 295 295 295 294 291 290 289 289 289 289 289 288 288 285 285 285 285 284 284 284 283 283 282
296 296 295 294 294 293 293 293 293 293 292 292 292 292 292 292 291 291 292 292 293 293 292 292 289 288 287 287 287 288 288 287 285 284 283 283 283 284 283 282 282 282 281
294 293 293 292 291 291 291 290 290 290 290 290 290 290 289 289 288 288 287 288 288 289 287 286 286 286 286 286 286 286 286 285 284 283 281 281 281 282 281 282 281 280 280
291 290 290 289 289 289 289 288 288 288 288 288 288 289 288 287 286 285 284 283 283 284 285 285 285 286 286 286 285 284 283 283 283 280 281 283 283 283 280 278 278 278 278
289 288 288 288 287 287 287 287 287 286 286 286 286 286 286 285 285 283 282 282 282 282 283 284 285 285 285 285 283 283 281 280 281 280 281 280 279 278 279 277 276 276 276
287 286 286 286 286 286 285 285 285 285 285 285 284 284 284 283 283 282 281 281 281 282 282 283 284 284 283 282 282 281 280 279 279 278 278 278 278 276 275 274 276 277 277
285 285 285 285 284 284 284 284 283 283 282 281 281 280 279 280 280 280 281 281 282 281 282 281 283 282 281 281 281 281 280 279 277 277 276 275 275 275 275 275 274 275 275
285 284 284 284 283 283 283 283 283 282 282 281 280 278 278 278 278 279 281 281 281 281 282 281 282 281 281 281 281 280 279 278 276 275 274 274 274 274 273 274 275 275 275
283 283 283 282 282 282 282 282 282 282 281 280 279 278 277 278 277 278 280 280 280 280 281 281 281 281 280 280 280 279 278 277 276 275 273 273 273 273 274 275 274 273 272
282 282 282 281 281 281 280 280 279 279 279 278 278 277 276 276 276 276 278 278 279 279 280 281 280 280 279 278 278 277 276 275 275 273 272 272 272 273 273 272 272 271 270
281 281 280 280 280 279 279 278 277 277 277 276 277 277 275 275 275 275 276 276 277 278 279 280 279 278 277 277 276 275 274 274 273 273 272 272 272 271 271 271 271 270 269
281 280 280 280 279 278 278 277 277 276 276 275 275 275 274 273 274 274 275 276 276 276 276 278 278 277 276 275 274 274 273 273 273 272 272 271 271 271 271 271 270 269 268
280 280 279 279 278 277 277 276 276 275 274 274 274 273 271 272 272 273 273 274 275 274 275 276 276 276 275 275 274 273 272 272 271 271 271 271 270 270 270 269 268 268 267
280 279 279 278 278 277 276 275 275 274 273 273 272 273 272 272 271 272 272 273 273 274 274 274 274 274 274 274 273 272 272 271 271 270 270 270 270 270 269 268 267 267 267
279 279 278 278 277 276 275 274 273 273 272 271 270 269 269 270 271 271 271 271 271 272 272 273 273 272 272 272 272 272 271 271 270 270 270 270 270 269 267 267 267 267 266
278 278 277 277 276 275 274 274 273 272 271 271 270 269 269 268 268 269 270 270 270 270 270 271 271 271 271 271 271 271 270 270 270 270 270 269 267 267 266 266 266 266 266
278 277 276 276 275 274 273 273 272 271 271 270 270 270 269 269 268 268 268 267 268 269 270 269 270 270 270 270 270 270 270 270 269 268 267 267 266 266 266 266 265 265 265
276 276 275 274 273 273 272 271 270 270 269 269 269 269 269 269 269 269 268 268 267 267 267 268 268 268 268 268 268 268 267 267 266 266 266 266 266 266 266 265 265 265 265
Wind_Speed
13 14 15 16 17 18 20 21 22 23 25 25 27 29 30 30 31 32 33 34 35 35 35 34 35 33 34 35 33 32 30 31 32 32 30 28 31 32 32 32 29 30 31
15 14 15 15 16 17 19 20 22 23 23 25 26 28 29 31 32 34 35 35 37 38 37 36 36 34 34 33 33 31 29 29 31 35 36 33 32 31 32 30 33 33 31
11 11 12 14 16 18 20 21 22 24 24 26 27 28 30 31 32 33 35 36 36 37 37 37 36 35 35 34 32 31 29 28 29 34 37 35 33 33 34 33 35 37 34
10 11 13 15 17 19 21 23 24 26 27 29 30 31 32 33 34 35 36 36 35 36 36 36 36 35 35 35 33 33 30 30 27 32 36 35 35 35 35 38 38 37 34
15 17 19 20 22 23 25 27 28 29 30 31 32 31 32 33 34 35 35 36 37 36 34 35 35 35 35 35 34 33 31 30 28 31 36 38 37 40 42 42 40 38 31
22 23 25 27 30 31 32 32 32 33 33 33 33 33 34 33 33 34 35 36 35 36 39 36 35 36 35 34 33 33 33 30 31 31 37 40 41 42 42 43 42 42 34
27 29 31 33 34 34 35 35 35 36 36 35 35 35 35 34 33 34 35 36 35 36 36 37 37 36 34 33 32 33 31 29 31 31 35 38 41 41 42 42 43 44 42
31 32 32 33 35 35 36 36 36 35 35 35 35 35 36 35 34 34 35 36 37 37 36 35 37 37 36 33 32 30 28 26 28 31 34 36 36 35 34 39 42 41 35
29 31 33 34 35 35 34 33 32 33 33 33 34 34 34 34 33 33 33 35 37 37 38 35 35 36 36 35 37 33 31 28 29 29 33 33 32 29 31 35 39 39 36
30 30 28 28 29 31 31 32 33 33 34 33 34 33 33 34 32 31 30 30 34 35 38 39 34 34 35 34 37 35 33 29 28 29 31 33 31 30 32 32 32 37 36
24 26 28 28 29 30 30 30 31 31 32 33 34 35 36 34 34 32 30 27 29 32 34 38 38 32 33 32 33 34 29 27 28 26 24 22 22 22 24 28 33 34 33
25 26 26 27 27 28 29 29 29 30 31 33 34 35 35 35 34 31 25 25 25 28 32 36 42 38 34 30 28 34 29 29 29 24 23 22 21 20 23 24 26 27 27
25 25 25 25 25 25 27 28 29 29 31 33 35 37 39 38 37 34 29 27 26 28 30 31 35 35 32 24 21 33 26 27 25 27 26 23 21 23 24 22 20 21 20
23 23 23 23 24 25 26 28 30 31 32 33 35 37 39 39 38 35 33 31 31 29 26 27 27 30 24 20 18 23 28 26 24 24 24 24 23 21 19 20 21 21 18
22 22 23 24 25 26 27 29 30 30 30 30 31 32 36 39 36 31 32 32 29 31 31 29 27 24 21 21 25 32 28 26 23 22 23 22 20 21 21 21 20 19 19
22 23 23 25 27 28 31 32 29 29 28 27 26 26 29 30 31 30 30 25 26 29 28 28 28 27 26 26 28 33 28 24 22 20 20 19 19 19 20 20 20 18 16
22 22 24 25 27 29 31 32 36 33 30 28 27 26 24 25 25 24 21 20 24 28 30 28 28 26 26 28 30 30 27 22 19 19 18 18 18 19 20 19 17 16 14
21 22 24 26 27 27 28 29 30 33 36 35 29 27 24 25 25 24 27 30 31 26 22 27 23 20 22 25 26 25 23 19 17 16 17 18 20 19 18 17 16 14 13
22 23 25 25 26 27 28 28 29 30 31 32 33 29 24 24 24 25 26 24 21 20 21 24 14 11 13 17 20 22 22 19 17 17 18 18 17 17 16 16 14 12 12
22 24 25 26 26 26 26 27 28 29 30 30 30 29 27 29 29 26 23 19 16 13 16 13 8 6 8 12 15 17 19 18 18 18 18 17 17 17 16 14 11 11 12
23 23 24 25 25 26 26 27 27 28 28 29 28 26 23 25 26 23 21 18 16 13 15 11 8 8 6 5 8 13 15 16 16 16 16 16 16 16 14 12 12 13 13
23 23 24 25 26 26 26 26 27 27 27 28 28 26 24 24 22 23 21 18 16 14 11 13 11 10 7 6 8 10 12 13 14 14 15 15 15 14 12 11 13 13 13
22 23 23 24 24 26 26 26 27 27 28 27 26 27 25 24 23 22 23 20 17 14 12 12 13 12 11 10 9 9 10 10 11 12 13 13 13 11 12 13 12 12 11
21 22 24 25 26 27 28 28 28 28 28 28 27 26 25 24 23 22 22 20 18 16 15 14 15 15 15 15 13 11 11 11 12 13 13 11 12 14 14 13 12 12 11
22 22 23 25 27 28 29 29 28 28 28 28 28 27 26 24 22 21 21 19 18 17 15 14 14 14 14 14 13 12 13 13 12 12 13 14 14 13 13 12 12 11 11
22 24 25 26 28 29 29 30 30 29 29 28 27 26 25 24 23 21 20 19 18 16 15 15 15 15 15 14 14 13 13 13 14 14 14 14 14 14 13 12 13 12 12
Wind_Direction
322 326 323 319 317 316 314 314 311 311 312 311 307 306 306 303 301 299 300 299 297 295 293 293 291 290 289 286 283 278 270 263 261 266 263 263 252 246 237 234 227 225 216
319 319 319 319 322 322 320 319 317 316 314 310 307 305 305 304 303 301 300 299 299 297 297 294 293 291 288 286 282 279 272 263 261 261 259 254 248 242 235 231 222 218 216
315 325 327 327 330 328 325 323 320 318 318 318 317 316 314 312 310 307 304 302 299 297 295 294 293 291 289 286 282 278 273 267 258 257 258 253 244 236 229 220 216 219 213
320 323 322 322 322 319 314 312 310 309 308 308 308 308 307 307 307 306 305 302 299 297 295 294 293 290 287 284 283 281 277 270 261 253 252 251 242 235 227 219 208 218 212
323 322 321 320 318 315 312 310 308 307 307 306 305 302 300 300 300 300 300 299 297 294 290 290 289 287 285 284 280 278 276 274 265 253 249 246 235 228 224 217 213 214 212
319 319 318 316 315 313 312 311 310 310 309 309 309 308 308 307 306 305 304 301 299 296 293 289 287 287 286 283 279 276 273 269 264 255 250 246 242 231 224 219 211 207 205
314 314 314 313 312 312 312 312 312 312 311 310 309 309 308 308 308 306 304 302 300 296 292 290 288 286 286 285 281 277 272 268 262 253 251 251 246 237 229 222 219 218 214
307 308 308 307 307 308 308 309 311 312 313 314 313 313 312 312 312 311 310 307 304 301 296 289 286 284 284 282 279 275 269 263 259 255 252 254 252 249 239 231 225 215 211
305 306 307 308 310 313 315 318 320 319 319 319 320 319 318 317 317 314 312 309 305 302 298 291 284 280 280 279 277 273 271 261 259 255 245 239 237 237 233 226 218 215 209
306 310 313 316 316 317 317 317 317 317 317 317 317 319 318 318 320 317 315 313 306 305 300 294 286 279 277 274 272 275 274 260 246 241 236 237 238 232 226 217 219 215 213
314 314 315 316 316 316 315 316 316 316 316 317 319 322 323 323 324 325 325 321 312 304 299 292 287 286 279 278 275 275 271 252 243 237 234 221 215 219 220 220 216 211 209
313 315 315 314 314 316 318 320 321 322 322 323 323 322 323 325 326 325 320 316 311 299 295 287 287 285 288 284 261 258 255 249 240 226 225 234 230 222 213 213 213 212 214
312 312 314 317 319 321 324 326 328 331 329 328 327 325 324 325 324 325 324 318 316 307 299 284 291 284 277 276 266 245 239 247 245 232 234 230 212 207 209 208 208 205 202
312 316 319 321 324 328 330 331 331 332 331 330 328 325 322 321 322 323 322 320 315 314 302 305 295 279 268 251 234 222 235 248 248 236 229 230 225 214 200 198 208 214 210
317 320 323 327 329 329 331 333 333 334 333 329 325 321 319 317 319 315 306 305 303 314 307 307 282 255 244 241 227 229 232 235 239 244 239 229 218 216 211 205 204 204 210
321 323 325 327 329 329 329 327 329 329 329 327 325 318 314 308 312 316 312 299 297 310 298 286 265 250 244 239 237 232 231 235 245 252 240 227 219 211 208 206 212 217 221
320 323 324 326 327 328 328 329 328 328 330 331 329 325 318 314 314 316 316 298 299 307 292 259 253 251 245 231 231 231 231 242 254 250 233 225 216 211 215 220 218 211 203
318 321 323 325 325 326 328 329 329 330 329 331 332 330 326 318 320 319 306 298 299 299 282 241 247 250 246 237 234 231 236 245 251 242 228 221 222 224 222 212 206 201 200
320 322 323 326 329 330 330 330 330 328 327 327 329 330 330 326 324 320 319 317 315 303 264 232 244 261 269 262 251 244 246 250 250 241 235 232 229 222 214 207 201 202 209
323 325 327 327 328 328 330 329 328 327 327 327 328 330 332 330 327 334 337 333 323 283 231 231 246 279 294 278 261 251 246 246 246 240 233 229 223 218 213 205 198 209 214
324 325 327 328 329 330 329 328 327 326 325 325 325 326 326 313 317 326 332 342 333 304 259 257 261 283 283 292 275 259 253 249 241 235 229 223 218 214 208 201 204 211 213
323 324 326 328 328 328 328 327 325 324 324 322 322 322 321 317 312 310 314 322 323 324 296 275 274 268 265 280 280 271 259 249 241 233 226 222 218 215 208 211 215 214 215
321 323 324 325 324 324 324 324 322 321 320 319 319 318 319 317 315 310 307 307 307 305 293 279 266 263 270 277 279 273 260 249 240 234 231 228 225 225 224 223 220 219 218
319 320 322 323 323 323 322 321 321 319 317 317 317 315 314 313 312 308 307 306 300 293 285 277 272 271 273 275 274 266 255 242 234 229 227 229 232 228 227 226 226 225 223
317 319 321 321 321 321 320 320 319 317 316 316 315 313 311 307 306 307 305 302 299 296 290 283 278 276 274 271 266 258 249 241 239 237 233 232 231 231 230 230 231 233 234
321 323 324 323 323 322 321 320 319 318 317 316 315 314 312 311 309 304 300 297 291 287 283 283 283 280 277 272 266 259 253 245 240 237 235 234 234 235 233 234 235 237 239